Preview of NWS' New Version of Forecast
This preview is not operational and should not be used for support decisions.

Regional Weather Roundup (RWR)

Issued by National Weather Service (NWS)

                            
000
ASUS44 KMEG 211010
RWRTN 
TENNESSEE HOURLY STATE WEATHER ROUNDUP
NATIONAL WEATHER SERVICE MEMPHIS TN
500 AM CDT SAT SEP 21 2019

TNZ002-004-019-021-049-052-054-088>092-211100-
WEST TENNESSEE
  
CITY           SKY/WX    TMP DP  RH WIND       PRES   REMARKS
MEMPHIS INTL   FAIR      72  61  68 S7        30.17R                  
NWS MEMPHIS      N/A     69 N/A N/A MISG        N/A                   
JACKSON        FAIR      62  60  93 CALM      30.20R                  
DYERSBURG      FAIR      67  64  90 SE5       30.18S                  
SOMERVILLE     CLEAR     68  63  83 VRB5      30.17R                  
UNION CITY     CLEAR     66  63  88 SE5       30.17R                  
BOLIVAR        CLEAR     63  61  94 SE3       30.19R                  
PARIS          CLEAR     68  63  83 SE5       30.20R                  
HUNTINGDON     CLEAR     66  63  88 CALM      30.20R                  
LEXINGTON      CLEAR     61  61 100 CALM      30.20R                  
SELMER         CLEAR     66  61  82 CALM      30.20R                  
SAVANNAH       PTCLDY    66  59  77 S6        30.21R                  
$$

TNZ008-025-027-028-033-062-065-066-211100-
NORTH MIDDLE TENNESSEE
  
CITY           SKY/WX    TMP DP  RH WIND       PRES   REMARKS
NASHVILLE      FAIR      68  57  68 CALM      30.26R                  
DICKSON        SUNNY     68  57  68 S5        30.23R                  
PORTLAND       CLEAR     66  61  82 S6        30.24S                  
CLARKSVILLE    FAIR      65  61  87 CALM      30.22S                  
LEBANON        MOSUNNY   64  59  82 CALM      30.24R                  
SMYRNA         FAIR      64  60  87 SE3       30.27R                  
MURFREESBORO   MOSUNNY   64  59  82 CALM      30.24R                  
LIVINGSTON       N/A     68  57  68 SW7       30.28R                  
CROSSVILLE     FAIR      59  55  87 CALM      30.33R                  
ROCKWOOD       SUNNY     63  57  82 SW6       30.31R                  
$$

TNZ061-075-076-078-094-096-097-211100-
SOUTH MIDDLE TENNESSEE
  
CITY           SKY/WX    TMP DP  RH WIND       PRES   REMARKS
LAWRENCEBURG   MOSUNNY   59  55  88 CALM      30.25R                  
LEWISBURG      SUNNY     59  57  94 CALM      30.25R                  
FAYETTEVILLE   CLEAR     63  57  82 CALM      30.26R                  
TULLAHOMA      CLEAR     59  55  88 CALM      30.28R                  
WINCHESTER     CLEAR     61  55  82 E5        30.28R                  
MCMINNVILLE    CLEAR     59  57  94 CALM      30.28R                  
COLUMBIA       CLEAR     64  63  94 CALM      30.23R                  
SHELBYVILLE    CLEAR     63  57  82 E5        30.26R                  
$$

TNZ017-018-042-046-047-211100-
NORTHEAST TENNESSEE
  
CITY           SKY/WX    TMP DP  RH WIND       PRES   REMARKS
TRI CITIES     MOCLDY    59  57  93 CALM      30.33R                  
ELIZABETHTON   CLOUDY    61  59  94 CALM      30.33R                  
GREENEVILLE    MOSUNNY   64  59  82 CALM      30.31R                  
$$

TNZ012-013-036-069-073-074-211100-
CENTRAL EAST TENNESSEE
  
CITY           SKY/WX    TMP DP  RH WIND       PRES   REMARKS
KNOXVILLE      FAIR      64  60  87 CALM      30.28R                  
OAK RIDGE      FAIR      65  60  84 CALM      30.31R                  
DOWNTOWN KNOXV PTCLDY    63  63 100 CALM      30.29R FOG              
GATLINBURG     PTCLDY    63  63 100 CALM      30.29R                  
MORRISTOWN     PTCLDY    63  61  94 CALM      30.30R                  
JACKSBORO      CLEAR     59  59 100 CALM      30.33R FOG              
$$

TNZ083-085-099-211100-
SOUTHEAST TENNESSEE
  
CITY           SKY/WX    TMP DP  RH WIND       PRES   REMARKS
CHATTANOOGA    FAIR      62  58  86 CALM      30.30R                  
$$

SKY/WX REPORTED AS FAIR MEANS FEW OR NO CLOUDS BELOW
12 THOUSAND FEET.